OPS 4682 DEB, 38437

Orbit data source: Space-Track

OPS 4682 DEB, 38437 is space debris in LEO originally from a launch on Sat, 03 Apr 1965 UTC launched from the Air Force Western Test Range (AFWTR). Debris objects in space refer to the collection of defunct objects orbiting the Earth. Examples of debris include non-operational satellites, rocket bodies, and fragments generated from explosions, collisions, or faulty payload assembly.

Loading next visibility...
Identifier
38437, 1965-027ES
Orbit
LEO
Country
Flag of USUS
Related business
Manufacturer
Unknown
Mission
Spacecraft
Bus & Motor
Unknown
Mass
Unknown
Launch date (UTC)
1965-04-03 (61 years ago)
Launch vehicle
Unknown
Launch site
Air Force Western Test Range (AFWTR)
Object type
Payload
Rocket body
Debris
Shape & HBR
Unknown shape, 0.1 m
Radar Cross Section
Medium (>0.1 m² and <1 m²)

Expand to show TLE details & history
Last TLE update: 15 hours ago

TLE from 15 hours ago
0 OPS 4682 DEB
1 38437U 65027ES  26174.96266513  .00000245  00000-0  83404-3 0  9996
2 38437  90.2347   5.8021 0039973 146.4802 213.8860 12.95927698551427
Epoch: 2026-06-23T23:06Z
TLE epoch observation values (Epoch: 2026-06-23T23:06:14.267Z)
Latitude
0.00007°
Longitude
107.11595°
Altitude
1,306.41 km
Speed
7.191 km/s
True Right ascension
00h 23m 12s
True Declination
0° 00' 00"
Sunlit
Object was in daylight at epoch
Visualization orbit readout
Latitude
Unknown
Longitude
Unknown
Altitude
Unknown
Speed
Unknown
Apparent Right ascension
Unknown
Apparent Declination
Unknown
Sunlit
N/A
Visualization observer readout
Local Sidereal Time
01:46:16
Azimuth
Unknown
Elevation
Unknown
Doppler factor
Unknown
Orbital elements
Apogee altitude
1,305.81 km
Perigee altitude
1,244.624 km
Semi-major axis
7,653.354 km
Eccentricity
0.004
Inclination
90.2347°
RAAN
5.8021°
Arg. of periapsis
146.4802°
True anomaly
213.63167°
Mean anomaly
213.886°
Eccentric anomaly
213.75873°
Mean motion
3.24165 °/min
Orbital period
111.05 mins
BSTAR
0.00083404
Loading maneuver chart data...
Computing Atmospheric mass density...
Loading historical data...
Loading historical data...
Loading historical data...
Loading historical data...
Loading historical data...
Loading historical data...
Loading historical data...

Documentation

Showing up to 5 results
|